Theta_e
296 289 286 291 293 294 294 291 289 290 294 296 297 296 299 303 303 300 303 310 316 310 309 313 318 320 329 330 328 330 329 330 331 330 331 333 330 334 336 338 337 337 335 333
291 287 293 296 292 293 293 290 288 290 293 292 290 294 300 300 300 297 298 303 309 306 304 303 312 311 312 313 316 325 329 330 331 332 333 332 334 334 335 336 336 336 334 334
288 290 296 295 287 291 292 290 288 288 291 293 291 290 294 298 298 297 298 300 305 305 302 300 300 304 307 307 308 312 317 323 330 332 331 331 333 334 334 334 334 334 335 334
290 295 293 292 290 293 288 293 292 289 289 284 291 285 293 296 293 295 296 297 297 297 299 297 297 296 299 303 306 308 311 315 319 326 330 329 328 329 331 332 335 334 335 334
285 291 291 290 291 293 289 294 292 291 289 288 287 285 288 294 290 294 294 294 294 293 293 293 294 295 296 298 304 304 305 307 310 314 320 329 328 332 333 333 333 333 333 334
288 294 294 293 295 294 295 292 290 290 287 281 287 285 283 291 292 294 293 292 293 292 291 292 293 295 295 297 299 300 301 301 305 307 310 314 323 328 330 331 331 331 331 329
286 286 293 295 290 293 292 288 280 279 278 280 287 284 284 289 291 293 293 290 290 292 291 290 290 291 292 294 295 297 298 297 300 303 303 305 307 313 315 318 325 327 322 319
281 278 288 291 290 288 289 287 282 275 277 279 284 280 285 289 290 291 292 290 289 289 290 290 289 290 291 292 293 295 296 297 299 299 298 299 301 303 305 305 310 309 309 310
280 281 290 292 293 292 286 284 287 282 280 280 282 284 289 290 289 290 289 288 287 287 288 288 289 289 289 290 291 293 295 296 298 300 299 297 299 300 300 301 301 301 302 304
285 281 289 290 293 292 289 291 282 284 275 275 279 281 284 287 288 288 288 288 286 286 286 287 287 288 289 289 290 292 293 294 296 298 298 298 296 295 295 295 295 296 297 299
288 287 285 289 286 285 286 284 285 285 282 278 276 280 289 288 290 289 289 289 288 287 286 286 286 287 288 289 290 290 291 292 293 294 295 295 294 294 293 292 292 292 293 294
288 287 281 282 287 289 289 287 286 281 278 281 281 280 291 290 291 291 289 289 289 288 287 287 287 287 287 288 289 289 290 290 291 293 292 292 291 291 291 290 290 291 290 291
287 282 278 280 285 288 287 288 288 287 286 280 279 280 291 291 291 291 290 290 288 287 286 286 287 287 287 287 288 288 289 289 290 291 292 290 290 289 288 288 289 289 288 288
289 282 279 278 280 286 284 286 287 287 284 281 281 282 286 288 289 290 291 291 289 288 287 286 286 286 286 286 287 288 288 289 290 290 289 288 288 288 288 287 287 287 287 286
288 279 280 281 283 285 285 285 285 285 283 283 284 284 287 288 288 290 291 292 289 288 287 287 286 286 285 285 286 286 287 288 289 288 287 286 287 287 287 286 286 286 287 286
286 279 280 276 282 283 282 284 284 283 283 284 286 285 292 290 292 291 291 291 290 290 289 287 286 285 285 284 285 284 285 286 287 286 284 285 285 285 285 285 285 285 286 286
281 280 280 276 276 280 279 281 284 285 286 285 282 287 288 288 288 289 289 292 291 290 290 287 286 286 285 284 284 284 284 285 285 284 283 283 283 283 283 284 284 284 284 285
278 278 279 276 276 272 276 280 280 283 285 286 285 286 288 287 287 289 289 290 290 290 289 288 288 286 285 285 284 283 284 284 283 282 282 283 283 282 283 283 283 283 283 283
282 281 274 276 276 276 276 278 279 281 282 287 285 284 284 287 288 287 288 288 288 289 290 290 289 288 286 284 283 283 282 282 282 281 281 281 282 281 281 281 281 282 282 282
279 281 280 276 274 271 275 280 282 283 277 285 286 283 285 287 283 287 288 287 288 288 288 287 287 286 285 283 283 282 282 282 281 280 280 281 282 282 281 280 280 281 281 280
276 275 275 274 274 277 278 281 282 275 277 284 284 284 284 283 285 286 285 286 286 285 285 286 285 284 284 282 282 281 281 281 281 280 280 280 281 281 281 280 280 280 279 279
275 276 275 272 273 272 279 280 278 281 282 283 285 285 284 284 284 284 284 284 285 285 284 284 284 283 282 282 282 281 280 281 280 279 279 279 279 279 279 279 279 279 279 278
274 276 277 277 278 280 281 282 283 284 284 284 285 285 286 285 285 284 284 284 283 284 282 282 283 282 281 281 282 281 281 279 278 278 276 277 277 279 279 279 278 278 278 278
276 276 276 276 280 278 280 282 282 283 284 285 285 286 286 286 285 283 283 283 282 281 280 280 279 280 280 280 281 282 280 278 276 276 276 276 276 277 277 278 279 279 278 277
278 276 277 277 280 280 281 281 283 283 283 282 283 284 285 285 284 283 282 282 283 281 278 277 277 278 279 279 280 281 279 278 278 277 276 276 277 276 276 277 277 277 278 278
278 278 277 278 283 283 283 282 282 281 281 282 282 281 282 282 282 283 282 282 281 279 278 276 277 277 278 278 278 279 279 278 277 275 274 276 276 276 276 276 275 276 277 277
Wind_Speed
10 8 14 15 19 15 18 13 9 6 5 3 18 19 10 2 6 8 2 2 8 9 6 12 9 9 6 6 7 7 11 10 8 5 4 4 6 5 3 5 9 8 7 7
8 14 16 21 3 11 18 18 7 10 6 4 1 7 17 5 5 4 1 8 7 9 10 10 8 9 10 8 9 3 4 7 7 6 7 3 6 2 7 7 5 7 8 8
20 16 20 22 8 17 18 17 15 10 9 2 4 5 13 4 2 2 6 11 11 9 6 8 7 8 6 7 7 6 6 4 5 5 4 2 4 6 7 7 5 7 8 9
9 10 16 16 12 11 11 14 13 16 11 3 4 4 17 14 7 2 6 10 10 9 9 8 5 6 9 7 6 9 8 8 7 3 7 9 7 8 8 7 6 6 7 7
6 21 20 18 16 9 12 19 16 13 7 7 8 7 5 14 9 9 5 9 10 8 9 9 8 8 6 6 7 7 8 9 9 8 7 4 5 6 4 4 5 5 5 5
5 8 8 11 14 9 17 20 15 9 5 4 9 6 7 9 6 11 10 6 9 10 9 9 8 8 7 5 7 7 7 6 9 9 8 7 5 6 6 7 7 4 4 3
5 3 6 13 23 19 14 11 4 4 3 1 6 6 8 7 4 4 12 10 7 8 9 9 9 8 8 10 11 9 11 11 10 10 10 9 8 6 6 6 1 4 2 2
5 3 5 2 8 8 14 4 3 5 7 5 4 4 5 5 4 6 8 10 7 7 9 9 8 7 10 11 11 9 7 7 7 8 8 7 7 5 5 6 5 5 5 4
4 4 3 9 7 5 2 4 4 5 2 4 6 5 5 4 6 5 8 7 7 5 7 8 6 8 8 7 8 7 5 7 6 9 7 8 6 6 5 6 6 5 6 5
3 4 7 4 9 9 6 4 4 1 6 5 5 5 7 5 5 6 7 8 7 6 6 5 6 7 5 6 4 4 5 6 9 9 8 7 7 7 7 7 8 7 6 7
3 5 6 4 4 6 4 1 1 3 4 2 6 6 5 3 2 7 9 9 8 9 8 6 5 3 2 2 3 6 6 7 8 8 7 7 7 7 8 7 7 7 7 7
6 3 4 9 3 3 1 7 3 3 2 3 3 5 4 5 6 8 9 9 8 7 7 7 5 5 3 3 2 3 5 7 7 7 6 7 7 7 8 8 8 8 8 8
4 4 5 4 4 2 3 1 2 2 2 3 2 6 5 6 8 7 9 9 7 7 7 6 6 6 5 4 3 4 5 7 6 5 6 7 8 8 8 8 8 8 8 8
4 5 6 3 7 4 4 5 3 2 1 2 4 12 7 7 8 7 8 8 8 6 7 6 6 5 5 3 3 4 6 6 5 6 7 7 9 9 9 9 9 8 7 8
3 5 6 9 6 5 4 5 3 2 2 2 6 12 10 8 7 7 7 8 7 6 5 5 5 5 4 3 4 5 6 5 5 7 7 8 7 8 9 9 9 8 8 8
6 4 1 5 8 7 7 5 4 3 3 6 8 8 7 7 7 7 7 5 4 4 5 5 5 5 4 3 4 4 5 5 5 7 7 7 7 8 7 8 8 7 8 8
4 3 2 3 4 3 5 2 1 2 2 5 3 4 7 6 5 5 5 5 4 2 4 6 6 5 5 5 4 4 4 5 7 7 7 7 7 8 7 7 8 8 8 8
4 3 4 2 2 1 1 2 5 4 0 5 8 8 5 5 5 6 6 5 5 6 3 4 4 6 6 5 4 4 4 5 6 7 7 6 6 7 6 7 8 7 7 7
6 2 4 1 1 1 1 2 1 1 1 6 6 6 6 6 5 3 5 5 4 4 4 4 4 6 7 6 6 4 4 4 5 6 6 5 5 5 6 6 6 6 6 7
5 6 2 1 2 2 3 2 1 2 4 9 6 7 8 8 5 5 2 3 4 4 3 4 6 6 7 6 6 5 4 3 4 4 5 5 4 5 6 5 5 5 6 6
4 4 3 1 1 0 3 3 0 3 2 5 7 8 6 3 5 5 3 3 3 3 3 3 5 5 5 6 6 5 4 4 5 4 3 3 4 4 4 5 4 4 5 5
3 1 1 2 1 1 5 4 3 2 1 5 7 5 6 7 5 4 3 2 1 1 3 3 4 4 4 6 5 5 5 5 5 5 4 3 4 3 3 3 3 3 3 4
2 2 1 3 2 2 4 2 2 2 4 4 5 4 5 5 4 3 4 3 1 0 1 2 3 5 5 5 4 5 5 6 6 5 4 3 3 3 3 3 2 2 1 2
3 2 2 3 2 6 6 4 5 2 2 0 1 4 4 3 3 2 2 3 2 2 2 1 2 5 5 5 4 2 6 6 5 5 4 4 3 3 2 2 2 2 3 2
2 6 3 5 6 2 8 8 6 6 3 2 1 1 2 3 2 3 2 2 3 3 3 2 4 3 4 6 6 5 6 7 6 5 4 4 3 3 3 2 2 2 1 2
7 6 6 3 2 1 3 2 1 6 8 7 4 2 2 2 3 2 3 2 2 3 3 3 5 5 5 5 5 6 7 8 7 5 4 4 4 4 3 3 3 6 7 6
Wind_Direction
191 197 197 193 204 201 198 133 127 57 53 187 201 195 223 349 56 18 356 171 99 82 55 51 28 16 161 143 167 188 174 180 175 181 195 216 198 194 216 216 210 181 187 189
168 216 219 176 157 207 137 129 111 95 42 55 134 213 206 143 79 28 358 137 121 90 42 41 36 29 41 61 51 78 167 175 178 179 191 201 201 198 217 207 213 188 190 190
183 192 211 146 167 170 154 162 158 129 123 80 147 226 225 160 128 39 73 66 103 117 90 73 32 29 52 40 32 45 33 13 183 169 171 207 240 226 221 206 203 198 194 192
238 214 188 153 147 185 143 158 129 138 150 163 171 212 199 169 142 121 70 94 84 87 85 72 58 19 29 44 34 41 28 28 32 352 185 196 217 207 221 199 198 193 197 202
194 178 172 176 168 175 129 135 137 140 133 163 188 266 95 138 160 162 104 95 94 74 76 61 51 58 45 7 51 37 37 28 24 29 12 224 227 260 279 234 173 183 172 178
45 1 173 157 136 159 124 113 107 106 109 223 169 235 144 173 172 159 130 91 94 92 77 69 51 37 47 62 50 57 60 42 34 33 27 10 345 295 252 215 218 195 154 81
40 64 124 144 125 138 152 146 108 94 168 244 149 194 60 93 79 129 152 127 94 95 78 61 48 34 19 26 33 23 34 35 31 37 28 16 7 12 0 348 316 150 114 116
348 107 109 189 128 171 168 39 106 137 174 148 145 219 103 75 68 105 101 122 102 71 78 62 49 34 29 26 22 24 29 51 48 59 46 29 14 22 16 11 14 31 61 61
333 84 57 142 166 95 132 122 16 99 53 165 171 111 129 127 112 139 137 134 123 103 72 63 50 42 29 30 27 2 29 44 47 69 61 49 32 32 22 29 39 40 39 45
218 103 105 54 91 36 43 106 139 179 167 151 182 156 88 156 135 147 144 135 126 108 92 84 46 48 25 11 8 19 27 51 41 56 54 53 46 45 45 44 44 43 38 37
17 339 90 119 18 134 108 177 268 60 338 128 154 111 23 33 102 143 131 123 131 135 139 137 115 90 40 38 14 34 30 42 49 49 53 58 48 48 52 53 48 46 46 45
19 36 111 48 57 40 28 189 327 329 80 20 354 90 61 76 98 117 116 116 119 122 123 118 124 112 108 69 32 44 45 55 50 53 58 64 59 54 56 56 55 52 56 49
3 17 112 115 124 70 87 97 168 44 347 20 306 110 101 105 105 106 120 124 130 131 132 137 146 131 124 107 73 63 43 57 51 58 66 73 70 65 61 60 57 59 62 60
67 63 33 99 72 71 127 122 52 41 347 116 28 125 130 121 113 116 116 129 138 149 156 148 146 124 108 96 80 67 63 55 56 65 66 63 63 66 67 64 63 61 65 74
72 89 74 68 62 75 108 102 18 61 47 19 139 129 137 115 92 80 96 124 141 157 173 159 139 124 119 109 97 84 70 65 71 76 70 65 63 73 75 72 72 65 67 66
6 110 260 57 42 85 96 98 108 64 100 74 90 109 88 101 110 91 82 115 150 172 177 159 145 142 133 124 95 92 89 73 72 78 74 71 74 73 73 75 79 76 72 71
39 126 346 65 4 107 103 77 66 111 112 127 155 98 141 127 90 59 45 45 59 82 154 159 167 164 150 149 140 118 105 102 97 90 81 81 79 80 74 77 78 77 76 74
105 76 1 107 269 166 52 19 349 333 34 105 107 116 98 81 47 38 40 15 34 41 71 117 141 138 138 131 129 119 115 111 107 98 94 89 93 88 83 84 78 74 73 73
41 98 90 150 77 63 119 205 204 247 192 167 128 120 114 116 131 61 22 24 18 26 43 77 119 128 135 141 131 123 114 108 111 109 102 97 98 100 93 87 85 83 88 80
44 44 69 176 129 182 56 105 347 309 280 155 152 143 148 160 199 102 102 33 28 37 53 112 127 135 142 133 137 140 135 131 116 118 117 113 105 113 110 104 95 79 81 93
12 16 48 102 61 70 117 127 209 183 70 134 139 135 143 145 46 104 95 97 62 44 53 113 143 151 141 141 151 152 152 155 112 103 104 97 104 109 114 108 104 108 111 107
323 321 123 153 222 21 159 136 226 14 113 142 141 130 110 104 105 100 96 84 62 94 139 157 151 154 148 160 167 162 176 123 129 129 115 90 76 73 86 90 93 91 106 103
220 306 336 241 53 52 221 15 35 314 157 179 160 148 130 127 127 136 143 161 178 275 172 156 181 162 172 174 187 175 143 146 139 130 121 115 98 95 102 126 127 132 113 141
207 185 268 323 153 233 237 227 247 269 246 192 305 156 169 141 148 172 169 178 186 185 218 189 185 190 185 177 180 166 142 136 130 139 144 143 151 152 151 157 168 183 185 190
36 165 192 259 264 239 243 231 245 222 204 244 290 275 201 157 209 193 202 214 198 186 175 183 210 226 206 169 180 153 145 146 151 148 151 169 179 187 170 210 197 220 233 223
185 189 191 243 118 1 87 8 306 207 211 214 169 234 238 186 251 175 228 213 180 199 177 199 213 215 206 182 172 160 161 166 159 161 171 185 188 185 195 195 218 231 245 236